Other Public Products
Issued by NWS Charleston, SC

Current Version | Previous Version | Graphics & Text | Print | Product List | Glossary On
Versions: 1 2 3 4 5 6 7 8 9 10 11 12 13 14 15 16 17 18 19 20 21 22 23 24 25 26 27 28 29 30 31 32 33 34 35 36 37 38 39 40 41 42 43 44 45 46 47 48 49 50
000 FPUS82 KCHS 240445 OPUCHS TEST...KCHS/KSAV Gateway Observations...TEST National Weather Service Charleston SC 100 AM EDT SUN SEP 24 2017 NOTE: "fair" indicates few or no clouds below 12,000 feet with no significant weather and/or obstructions to visibility. SCZ050-WAZ558-NCZ071-TXZ119-213-PAZ071-DCZ001-FLZ074-172-MI076- NYZ176-178-MAZ016-IL014-TNZ027-NJZ106-GAZ044-MD014-240600- ...Gateway Observations for Charleston International... CITY SKY/WX TMP DP RH WIND PRES REMARKS Chas Airport NOT AVBL Seattle NOT AVBL Charlotte NOT AVBL Dallas DFW NOT AVBL Dallas Love NOT AVBL Philladelphia NOT AVBL Wash National NOT AVBL Baltimore NOT AVBL Miami NOT AVBL Detroit NOT AVBL Newark NOT AVBL Laguardia NOT AVBL J F K NOT AVBL Boston Logan NOT AVBL Ft. Lauderdale NOT AVBL Chicago O`Hare NOT AVBL Chicago Midway NOT AVBL Houston Bush NOT AVBL Houston Hobby NOT AVBL Nashville NOT AVBL Atlanta NOT AVBL $$ GAZ044-118-TXZ119-213-NCZ071-DCZ001-MDZ014-506-PAZ021-071-NJZ106- NYZ176-178-MAZ106-OHZ011-021-055-MIZ076-KYZ091-ILZ014-INZ047- MNZ060-ONZ431-240600- ...Gateway Observations for Savannah International... CITY SKY/WX TMP DP RH WIND PRES REMARKS Savannah Arpt NOT AVBL Atlanta NOT AVBL Charlotte NOT AVBL Dallas DFW NOT AVBL Houston Bush NOT AVBL Wash National NOT AVBL Wash Dulles NOT AVBL Baltimore NOT AVBL Philadelphia NOT AVBL Newark NOT AVBL Laguardia NOT AVBL J F K NOT AVBL Boston NOT AVBL Pittsburg NOT AVBL Akron NOT AVBL Cleveland NOT AVBL Cincinnati NOT AVBL Columbus NOT AVBL Detroit NOT AVBL Chicago O`Hare NOT AVBL Minneapolis NOT AVBL Indianapolis NOT AVBL Toronto Canada NOT AVBL $$

USA.gov is the U.S. government's official web portal to all federal, state and local government web resources and services.